Location: Mohawk View
(42.7837°N, 73.7885°W)
Time: 08:41:13
(UTC+00:00)

Cosmos 841 Rocket - Pass Details

Date: 17 June 2021
Orbit: 747 x 772 km, 74.0° (Epoch: 28 July)

Event Time Altitude Azimuth Distance (km) Brightness Sun altitude
Exits shadow 07:19:57 25° 232° (SW) 1,483 4.4 -16.0°
Maximum altitude 07:22:40 49° 294° (WNW) 962 3.9 -15.7°
Drops below altitude 10° 07:27:40 10° 10° (N) 2,273 7.0 -15.2°
Sets 07:30:07 0° 16° (NNE) 3,201 8.1 -14.9°
